Location: Unspecified
(0.0000°N, 0.0000°E)
Time: 20:18:50
(UTC+00:00)

Vanguard 1 Rocket - Visible Passes

Search period start: 01 September 2015 00:00
Search period end: 11 September 2015 00:00
Orbit: 652 x 4226 km, 34.3° (Epoch: 31 August)

Date Brightness Start Highest point End Pass type
(mag) Time Alt. Az. Time Alt. Az. Time Alt. Az.
01 Sep 10.8 01:49:45 44° SSE 01:49:45 44° SSE 02:05:27 10° SE visible
01 Sep 10.9 04:07:04 28° SW 04:15:57 33° SSW 04:36:57 10° SSE visible
02 Sep 11.4 00:42:48 24° SE 00:42:48 24° SE 00:49:50 10° SE visible
02 Sep 10.7 03:00:07 43° SSW 03:00:07 43° SSW 03:22:51 10° SE visible
02 Sep 11.4 05:19:45 10° WSW 05:38:33 23° SSW 05:54:32 10° SSE visible
03 Sep 10.9 01:53:04 40° SSE 01:53:04 40° SSE 02:08:09 10° SE visible
03 Sep 11.1 04:10:22 23° SW 04:20:33 28° SSW 04:40:15 10° SSE visible
04 Sep 11.4 00:45:57 23° SE 00:45:57 23° SE 00:52:44 10° SE visible
04 Sep 10.8 03:03:14 36° SSW 03:03:14 36° SSW 03:25:42 10° SE visible
04 Sep 11.5 05:25:45 10° SW 05:43:44 21° S 05:59:07 10° SE visible
05 Sep 11.0 01:56:03 36° SSE 01:56:03 36° SSE 02:10:48 10° SE visible
05 Sep 11.2 04:13:19 18° SW 04:25:27 25° SSW 04:43:57 10° SE visible
06 Sep 11.4 00:48:48 22° SE 00:48:48 22° SE 00:55:27 10° SE visible
06 Sep 11.0 03:06:05 31° SSW 03:07:38 31° SSW 03:28:44 10° SE visible
06 Sep 11.6 05:31:15 10° SW 05:49:00 21° S 06:04:18 10° SE visible
06 Sep 10.2 20:45:27 10° N 20:45:52 11° N 20:45:52 11° N visible
07 Sep 11.1 01:58:47 32° S 01:58:47 32° S 02:13:27 10° SE visible
07 Sep 11.3 04:16:03 14° SW 04:30:35 23° S 04:48:12 10° SE visible
08 Sep 11.4 00:51:27 21° SE 00:51:27 21° SE 00:58:02 10° SE visible
08 Sep 11.1 03:08:43 26° SSW 03:12:26 26° SSW 03:32:07 10° SE visible
08 Sep 11.6 05:36:01 10° SW 05:54:15 23° S 06:09:54 10° SE visible
08 Sep 10.0 20:48:11 10° NNW 20:48:55 13° NNW 20:48:55 13° NNW visible
09 Sep 11.1 02:01:20 29° S 02:01:20 29° S 02:16:14 10° SE visible
09 Sep 11.4 04:18:36 10° SW 04:35:51 22° S 04:53:08 10° SE visible
09 Sep 9.8 19:40:43 10° NNE 19:41:51 12° NNE 19:41:51 12° NNE visible
10 Sep 11.4 00:53:56 21° SSE 00:53:56 21° SSE 01:00:34 10° SE visible
10 Sep 11.2 03:11:11 21° SSW 03:17:29 23° S 03:36:00 10° SE visible
10 Sep 9.9 20:51:11 10° NNW 20:52:08 15° NNW 20:52:08 15° NNW visible
